Location: Caltech
(34.1382°N, 118.1253°W)
Time: 20:02:29
(UTC-07:00)

ALOS - Visible Passes

Search period start: 28 August 2015 00:00
Search period end: 07 September 2015 00:00
Orbit: 686 x 687 km, 97.9° (Epoch: 28 August)

Date Brightness Start Highest point End Pass type
(mag) Time Alt. Az. Time Alt. Az. Time Alt. Az.
28 Aug 2.2 21:15:25 44° S 21:16:54 82° W 21:21:36 10° NNW visible
29 Aug 3.6 20:15:21 16° ESE 20:17:35 22° ENE 20:21:14 10° NNE visible
29 Aug 3.8 21:53:55 28° WSW 21:54:55 30° W 21:59:00 10° NW visible
30 Aug 2.3 20:53:50 38° SE 20:55:20 57° ENE 20:59:56 10° N visible
30 Aug 5.0 22:32:24 11° W 22:33:15 11° W 22:34:31 10° WNW visible
31 Aug 4.1 19:54:05 10° E 19:56:10 13° ENE 19:58:29 10° NE visible
31 Aug 2.9 21:32:20 45° SW 21:33:14 53° W 21:37:49 10° NNW visible
01 Sep 3.0 20:32:15 26° ESE 20:33:50 33° ENE 20:38:02 10° N visible
01 Sep 4.4 22:10:48 20° WSW 22:11:24 20° W 22:14:44 10° NW visible
02 Sep 2.1 21:10:44 59° SSE 21:11:38 88° ENE 21:16:20 10° NNW visible
03 Sep 3.7 20:10:40 16° E 20:12:22 20° ENE 20:15:47 10° NNE visible
03 Sep 3.6 21:49:13 33° WSW 21:49:38 34° W 21:53:52 10° NNW visible
04 Sep 2.5 20:49:09 43° ESE 20:50:06 50° ENE 20:54:38 10° N visible
04 Sep 5.0 22:27:43 13° W 22:27:55 13° W 22:29:53 10° WNW visible
05 Sep 4.2 19:49:26 10° E 19:50:56 12° ENE 19:52:44 10° NE visible
05 Sep 2.6 21:27:39 58° WSW 21:27:58 60° W 21:32:36 10° NNW visible
06 Sep 3.2 20:27:35 27° E 20:28:35 29° ENE 20:32:39 10° NNE visible
06 Sep 4.3 22:06:08 22° W 22:06:08 22° W 22:09:41 10° NW visible
